Location: Bessat
(45.8735°N, 1.9924°E)
Time: 20:23:51
(UTC+00:00)

IRS-1A Rocket - Pass Details

Date: 11 May 2021
Orbit: 851 x 931 km, 99.2° (Epoch: 21 June)

Event Time Altitude Azimuth Distance (km) Brightness Sun altitude
Exits shadow 19:42:58 -1° 158° (SSE) 3,569 7.0 -5.4°
Rises 19:43:08 0° 158° (SSE) 3,504 6.9 -5.4°
Reaches altitude 10° 19:45:30 10° 157° (SSE) 2,579 6.2 -5.8°
Maximum altitude 19:51:16 78° 73° (ENE) 941 4.4 -6.6°
Drops below altitude 10° 19:57:10 10° 348° (NNW) 2,638 7.6 -7.4°
Sets 19:59:37 0° 347° (NNW) 3,590 8.3 -7.8°
